Regional Weather Roundup
Issued by NWS

Home | Current Version | Previous Version | Text Only | Print | Product List | Glossary Off
Versions: 1 2 3 4 5 6 7 8 9 10 11 12 13 14 15 16 17 18 19 20 21 22 23 24 25 26 27

000
ASUS45 KBOI 152010
RWRID

IDAHO REGIONAL WEATHER ROUNDUP
NATIONAL WEATHER SERVICE BOISE ID
200 PM MDT SUN OCT 15 2017

NOTE: "FAIR" INDICATES FEW OR NO CLOUDS BELOW 12000 FEET
WITH NO SIGNIFICANT WEATHER AND/OR OBSTRUCTIONS TO VISIBILITY

IDZ012-014-152100-
SOUTHWEST IDAHO


CITY           SKY/WX    TMP DP  RH WIND       PRES   REMARKS
BOISE          SUNNY     54  28  36 E5        30.46F
CALDWELL       SUNNY     55  26  32 E8        30.47F
MOUNTAIN HOME  SUNNY     57  25  29 SE14G22   30.44F
$$

IDZ016-017-152100-
SOUTHCENTRAL IDAHO


CITY           SKY/WX    TMP DP  RH WIND       PRES   REMARKS
BURLEY         SUNNY     55  25  31 NE10      30.45F
JEROME         SUNNY     56  20  24 NE14      30.46F
TWIN FALLS     SUNNY     54  25  32 NE10      30.45F
$$

IDZ019>023-152100-
SOUTHEAST IDAHO


CITY           SKY/WX    TMP DP  RH WIND       PRES   REMARKS
IDAHO FALLS    SUNNY     48  24  39 NE5       30.52F
POCATELLO      SUNNY     53  26  35 E6        30.49F
REXBURG        SUNNY     47  19  33 CALM      30.52F
$$

IDZ006-010-011-018-031-032-152100-
CENTRAL IDAHO MOUNTAINS


CITY           SKY/WX    TMP DP  RH WIND       PRES   REMARKS
MCCALL         SUNNY     47  19  33 S3        30.43F
HAILEY         SUNNY     52  21  30 SE7       30.49F
STANLEY          N/A     46  24  42 VRB5      30.47F
SALMON         SUNNY     51  23  33 CALM      30.45F
CHALLIS        SUNNY     49  18  29 E3        30.45F
$$

IDZ002-004-006-007-026-152100-
NORTHERN IDAHO


CITY           SKY/WX    TMP DP  RH WIND       PRES   REMARKS
LEWISTON       SUNNY     60  34  37 E9        30.35F
LOWELL         NOT AVBL
COEUR D`ALENE  SUNNY     55  33  43 S7        30.37F
MULLAN PASS    SUNNY     38  32  79 S6        30.37F WCI  33
$$




USA.gov is the U.S. government's official web portal to all federal, state and local government web resources and services.